Wind_Speed
45 43 42 37 39 43 42 42 42 43 45 48 50 44 39 44 47 49 53 52 52 55 59 63 69 70 69 70 72 73 72 63 56 53 51 52 52 51 48 43 40 39 41
46 43 43 41 39 40 42 41 43 46 49 48 49 40 45 48 48 52 52 51 54 58 63 68 70 68 71 71 73 70 57 52 51 49 48 49 50 47 44 41 37 35 31
44 43 44 44 44 45 45 46 45 47 46 46 45 46 47 48 52 50 51 52 56 61 67 69 68 70 72 73 70 56 51 48 48 47 45 45 46 44 41 35 30 30 31
41 39 42 44 45 45 46 47 49 45 46 49 48 47 49 51 49 49 52 57 59 64 68 67 70 72 74 72 57 53 49 47 46 44 42 41 41 40 38 29 22 23 28
37 38 44 44 43 46 49 49 48 49 48 46 47 50 50 47 49 51 54 58 63 68 66 68 70 72 71 59 53 49 46 45 44 42 39 38 38 36 36 27 17 17 25
35 36 41 45 49 50 50 48 48 45 45 47 49 46 46 47 51 55 57 61 66 66 66 68 70 70 58 51 48 47 45 43 42 41 38 36 35 36 35 27 18 11 20
39 37 37 40 43 43 45 44 43 43 45 45 44 44 46 49 54 57 60 64 65 64 66 68 68 58 46 44 45 46 45 41 41 41 39 35 33 34 35 33 21 12 14
43 41 41 40 40 41 41 42 43 43 44 44 44 46 49 53 56 60 63 65 64 65 67 65 55 45 42 44 45 45 44 42 39 39 38 36 33 31 32 32 29 16 10
48 47 44 42 41 41 41 42 42 43 44 44 45 48 52 57 62 64 66 64 64 66 64 57 45 41 41 44 46 44 43 43 42 39 37 36 34 32 29 29 28 24 13
54 52 49 46 44 44 42 41 44 44 45 47 48 52 55 61 64 67 66 65 65 65 60 48 45 42 43 42 40 39 39 42 43 42 40 38 36 33 30 27 25 23 20
56 55 54 52 48 46 45 44 45 46 48 50 53 56 59 64 65 67 66 66 66 61 58 49 46 45 43 42 42 44 41 42 40 40 42 41 39 37 32 28 25 23 21
55 54 54 53 50 48 48 48 48 50 52 54 56 60 63 66 68 69 67 64 62 59 55 48 48 46 46 45 45 45 43 46 44 42 38 39 42 40 36 33 28 25 22
55 55 55 54 53 52 51 51 52 54 56 58 61 64 65 67 68 68 67 66 63 55 49 47 48 48 49 48 51 46 49 48 47 46 44 45 43 40 41 37 33 30 26
59 57 57 56 57 56 56 57 57 59 62 64 65 66 67 69 69 67 68 67 57 52 49 50 49 53 53 54 54 52 52 51 53 51 50 52 45 41 37 37 37 34 31
62 60 60 59 59 60 59 60 62 64 66 68 69 68 69 68 68 68 69 63 61 53 53 55 56 55 54 54 57 58 60 61 61 59 56 55 50 46 44 39 37 38 36
62 64 66 64 63 62 65 66 67 69 71 72 71 71 69 68 69 69 66 60 60 57 60 57 56 59 60 62 61 62 63 66 64 66 66 62 60 56 48 45 45 40 38
66 66 65 66 67 69 69 69 70 71 73 73 72 73 71 71 70 70 63 58 58 58 61 61 63 63 64 64 62 64 67 68 67 67 66 64 64 62 59 56 49 47 43
76 73 73 69 65 66 68 69 70 72 73 73 74 75 75 73 72 67 60 61 61 63 63 65 67 69 68 70 69 70 71 72 71 68 69 70 68 65 63 63 61 53 49
79 78 78 74 74 73 71 73 75 76 75 76 77 77 74 73 68 64 63 64 64 65 66 68 72 72 72 71 72 75 75 74 76 77 75 76 71 70 68 67 65 63 55
88 87 82 79 77 75 74 72 75 75 75 75 77 73 74 68 66 65 65 66 66 70 70 72 72 74 75 76 78 80 83 81 77 79 82 78 78 76 75 72 72 71 69
92 91 87 82 79 78 73 71 74 73 76 77 73 74 68 69 66 67 68 71 73 72 75 76 77 77 79 80 83 84 87 89 90 88 85 81 82 81 78 78 77 75 78
98 96 90 83 78 76 72 72 75 76 77 75 74 71 69 70 69 71 73 75 79 78 81 85 87 85 87 87 90 94 91 93 93 91 92 92 83 85 83 82 81 81 78
93 88 84 82 80 76 75 76 79 76 76 76 72 71 69 69 72 78 80 82 85 86 91 90 90 95 95 99 100 100 101 99 97 96 94 96 94 90 90 90 85 84 83
89 84 83 82 80 76 79 82 79 76 78 75 75 72 76 78 81 85 87 88 91 94 95 99 99 99 103 104 106 107 107 107 108 106 104 99 101 97 94 93 94 93 89
83 85 84 82 79 81 81 77 76 76 77 76 74 79 81 85 88 91 94 94 97 100 103 104 106 107 110 113 112 113 111 114 115 115 112 104 103 101 99 100 100 99 96
78 78 81 81 78 75 75 74 74 76 77 79 82 84 88 91 94 97 98 101 104 107 109 111 114 117 118 118 120 121 120 121 119 116 116 111 112 111 106 105 107 109 107
Wind_Direction
271 273 275 272 273 276 276 277 286 290 290 298 305 302 295 302 302 304 308 308 308 310 314 315 316 316 315 315 315 315 315 315 313 311 309 305 304 303 301 294 284 272 264
271 271 269 267 267 266 273 281 287 288 289 293 305 298 300 302 303 306 307 307 311 315 317 317 318 316 317 319 319 319 319 320 319 317 313 310 309 308 307 297 284 272 264
269 269 267 267 267 269 276 283 283 285 294 300 299 296 297 300 303 306 306 310 314 318 319 319 319 319 320 321 322 321 320 322 323 319 317 315 316 316 313 301 285 263 251
267 266 266 269 269 273 280 279 284 291 294 295 293 293 297 301 304 305 310 314 316 319 319 319 320 320 323 324 324 324 322 322 324 322 322 323 324 326 324 315 293 259 243
267 262 262 270 272 270 275 281 288 292 293 290 290 294 298 301 305 309 312 315 319 319 321 321 321 322 325 325 328 329 326 323 324 326 328 330 335 339 340 328 304 261 238
273 271 267 268 270 274 279 284 287 288 287 287 290 295 298 304 308 310 313 318 319 321 322 322 323 324 325 328 332 333 332 328 325 328 331 335 342 347 353 346 330 280 238
275 277 275 273 276 279 281 283 285 285 286 287 292 296 302 306 307 311 316 319 320 321 323 324 325 324 326 327 331 333 334 334 331 331 332 336 342 351 355 359 347 318 245
274 276 278 279 281 284 284 283 283 284 285 289 295 301 304 305 307 313 318 320 321 322 324 326 325 322 324 327 328 329 330 331 334 333 332 334 339 345 354 358 1 342 286
273 275 278 281 282 283 283 282 281 282 285 291 297 301 304 307 310 315 318 320 320 323 325 326 323 323 323 325 327 328 326 328 330 332 332 331 333 338 344 352 359 359 330
271 274 277 279 281 282 281 280 280 284 289 294 298 300 304 307 311 316 317 318 321 323 326 324 323 321 318 321 321 327 328 332 331 331 328 329 329 329 333 339 347 355 354
271 273 275 277 278 280 279 279 282 286 290 295 298 300 304 306 312 314 314 319 320 323 324 319 317 316 316 319 323 324 323 327 329 329 327 327 326 323 322 325 329 336 344
269 271 272 274 276 277 279 280 284 288 291 294 296 300 304 309 311 312 315 317 320 320 319 317 316 316 318 319 322 325 324 326 327 328 328 327 325 321 318 315 314 317 321
268 269 270 272 274 276 278 282 285 287 291 293 296 300 304 307 309 312 314 316 318 317 315 317 317 318 318 320 325 323 323 322 325 325 323 321 323 318 314 312 307 304 304
268 269 271 271 273 276 278 281 284 288 290 293 296 300 304 306 309 310 312 314 315 313 314 315 317 320 318 320 322 322 324 324 325 325 323 322 318 316 311 306 304 299 295
266 269 271 274 277 277 278 281 284 287 289 293 296 300 302 305 307 308 311 313 312 311 314 315 316 318 317 319 320 321 322 322 323 324 322 321 319 314 309 305 301 295 290
268 270 272 274 277 277 279 282 284 286 288 292 295 297 299 302 304 307 308 309 309 310 312 313 312 315 315 317 317 319 320 321 320 318 318 316 317 314 309 305 302 294 287
268 270 273 274 277 279 280 281 283 285 288 290 293 295 298 300 301 304 305 304 306 307 308 309 311 312 311 312 312 313 315 316 318 317 316 316 316 312 308 307 305 298 287
266 268 272 274 276 278 279 280 283 285 287 289 291 293 296 298 300 300 301 302 302 303 304 306 307 307 309 310 313 313 311 315 313 313 312 311 312 309 307 306 303 300 293
265 268 272 274 276 277 279 281 282 284 285 287 289 292 294 296 298 297 298 299 299 300 300 301 302 305 305 306 310 312 312 311 311 311 309 310 308 306 303 300 299 299 293
264 267 271 272 276 278 279 282 282 283 285 286 287 290 292 293 295 296 295 296 297 296 298 299 301 303 305 307 307 310 310 309 310 306 306 304 302 302 302 298 296 294 293
265 269 272 274 276 277 279 281 281 283 283 284 286 288 289 292 292 293 293 295 296 293 295 299 298 301 302 302 304 307 306 307 308 307 307 303 300 295 294 294 294 291 289
265 269 272 273 274 276 279 280 280 281 283 283 285 286 288 290 292 293 291 293 293 294 296 300 301 301 302 301 302 305 305 305 304 304 303 305 297 292 291 291 290 290 289
267 269 270 271 273 276 276 277 279 280 281 282 283 286 288 289 289 293 294 293 293 294 297 299 298 299 302 302 302 303 304 303 300 299 301 298 298 293 291 287 284 285 285
267 269 269 271 274 274 274 278 279 280 280 280 283 285 288 290 289 291 292 292 294 297 297 298 298 297 300 300 301 302 302 302 302 298 297 295 295 294 291 288 287 286 284
267 268 270 272 272 272 277 277 278 278 279 281 284 285 288 289 291 291 292 293 295 296 296 297 297 298 298 299 299 301 299 300 300 299 296 293 293 292 292 288 286 285 284
267 268 268 271 273 273 275 276 276 279 282 283 284 286 288 289 289 291 292 293 293 293 294 295 296 298 298 298 299 298 300 301 301 298 294 292 291 291 290 288 285 283 283
Height
10812 10812 10812 10812 10812 10810 10809 10808 10807 10805 10803 10800 10798 10794 10790 10785 10781 10777 10771 10766 10760 10753 10746 10737 10728 10718 10708 10700 10689 10678 10667 10655 10645 10636 10627 10619 10611 10604 10600 10597 10596 10597 10599
10802 10803 10803 10803 10803 10801 10801 10800 10799 10797 10794 10792 10790 10786 10782 10778 10772 10768 10763 10757 10751 10744 10735 10726 10716 10707 10696 10686 10675 10663 10653 10644 10636 10627 10618 10610 10601 10594 10588 10584 10583 10585 10589
10793 10794 10794 10794 10794 10794 10793 10793 10791 10789 10785 10783 10781 10777 10773 10770 10766 10760 10753 10749 10742 10735 10724 10714 10704 10694 10684 10674 10662 10651 10644 10637 10629 10620 10612 10603 10594 10586 10579 10572 10570 10572 10578
10785 10785 10785 10786 10786 10786 10785 10783 10782 10780 10777 10775 10772 10769 10765 10761 10756 10752 10746 10738 10733 10725 10715 10704 10694 10683 10673 10660 10650 10642 10635 10629 10623 10615 10607 10598 10589 10580 10571 10564 10561 10563 10569
10777 10777 10778 10778 10777 10777 10776 10774 10773 10771 10769 10765 10763 10760 10757 10752 10747 10742 10737 10731 10722 10714 10705 10695 10684 10673 10663 10652 10643 10636 10629 10623 10617 10611 10604 10595 10586 10577 10567 10560 10557 10558 10563
10769 10769 10770 10769 10769 10768 10767 10765 10764 10762 10760 10757 10755 10752 10749 10744 10738 10733 10727 10722 10714 10704 10694 10685 10675 10664 10653 10645 10638 10631 10625 10618 10611 10606 10599 10593 10585 10575 10568 10561 10556 10554 10558
10761 10761 10761 10760 10760 10759 10758 10757 10755 10753 10751 10748 10746 10744 10739 10735 10729 10723 10718 10712 10705 10695 10686 10676 10664 10654 10648 10640 10634 10627 10621 10615 10608 10601 10596 10590 10584 10577 10569 10562 10557 10554 10554
10752 10752 10752 10752 10751 10750 10749 10747 10746 10744 10742 10740 10737 10733 10729 10725 10721 10715 10708 10702 10694 10686 10677 10668 10657 10648 10642 10635 10630 10623 10617 10611 10605 10599 10593 10588 10582 10577 10571 10564 10559 10555 10554
10743 10743 10743 10743 10742 10741 10740 10739 10737 10734 10733 10731 10728 10724 10719 10714 10708 10703 10698 10692 10684 10677 10668 10660 10652 10645 10639 10632 10625 10620 10613 10607 10601 10595 10590 10585 10581 10576 10571 10566 10561 10557 10555
10733 10733 10734 10734 10733 10732 10731 10730 10728 10726 10723 10720 10718 10714 10710 10705 10699 10692 10686 10682 10674 10667 10659 10653 10647 10640 10634 10629 10622 10615 10609 10603 10597 10592 10587 10582 10577 10573 10570 10566 10562 10558 10554
10723 10723 10723 10723 10723 10722 10721 10720 10718 10716 10714 10710 10707 10703 10700 10694 10689 10683 10677 10670 10663 10657 10650 10645 10640 10634 10628 10623 10617 10610 10605 10599 10594 10589 10583 10578 10574 10570 10566 10563 10561 10558 10554
10711 10712 10712 10712 10712 10711 10711 10709 10707 10705 10703 10700 10697 10693 10689 10683 10677 10671 10666 10662 10657 10648 10641 10635 10630 10627 10621 10616 10612 10605 10599 10593 10589 10584 10579 10574 10570 10566 10562 10559 10556 10554 10553
10700 10701 10700 10701 10701 10700 10699 10697 10695 10693 10691 10688 10685 10681 10677 10672 10667 10660 10653 10649 10646 10639 10634 10628 10622 10616 10612 10608 10603 10599 10593 10588 10582 10578 10574 10569 10566 10561 10557 10554 10551 10548 10547
10688 10689 10689 10689 10689 10689 10687 10686 10683 10681 10679 10676 10672 10669 10665 10659 10654 10649 10643 10637 10632 10627 10623 10618 10613 10607 10601 10596 10592 10588 10585 10579 10575 10571 10566 10562 10558 10554 10550 10547 10544 10542 10540
10674 10676 10676 10677 10677 10677 10675 10673 10671 10668 10665 10662 10659 10656 10651 10647 10641 10636 10631 10625 10620 10617 10613 10607 10602 10597 10592 10588 10583 10578 10573 10568 10563 10560 10556 10552 10549 10546 10543 10538 10536 10533 10532
10661 10662 10664 10665 10665 10664 10662 10660 10658 10655 10651 10648 10645 10641 10637 10633 10627 10623 10618 10613 10608 10602 10598 10597 10591 10586 10580 10576 10571 10566 10562 10558 10553 10548 10544 10540 10536 10534 10532 10529 10526 10523 10521
10649 10649 10650 10650 10650 10650 10648 10646 10643 10640 10637 10633 10629 10625 10622 10618 10614 10609 10605 10600 10596 10590 10584 10580 10577 10573 10568 10563 10558 10553 10548 10544 10539 10535 10529 10526 10523 10519 10516 10514 10513 10510 10507
10636 10636 10637 10637 10637 10635 10633 10631 10628 10624 10621 10617 10613 10610 10607 10603 10599 10594 10590 10586 10582 10577 10571 10566 10562 10557 10552 10548 10543 10538 10534 10529 10524 10521 10516 10512 10508 10504 10501 10498 10495 10495 10493
10620 10621 10623 10623 10622 10620 10618 10615 10612 10608 10605 10602 10598 10595 10591 10587 10583 10580 10576 10572 10568 10563 10558 10552 10546 10542 10537 10533 10528 10523 10518 10514 10509 10503 10499 10497 10493 10488 10484 10481 10479 10477 10478
10605 10607 10608 10608 10607 10605 10603 10599 10595 10591 10589 10585 10581 10578 10573 10570 10567 10564 10560 10556 10552 10547 10542 10537 10532 10526 10521 10515 10511 10505 10501 10496 10491 10488 10481 10477 10473 10469 10467 10464 10460 10457 10457
10587 10589 10591 10592 10591 10588 10586 10581 10577 10574 10571 10567 10563 10560 10557 10554 10551 10547 10543 10538 10535 10528 10523 10519 10514 10509 10502 10497 10493 10487 10480 10474 10472 10469 10462 10460 10455 10451 10446 10444 10441 10438 10435
10570 10572 10574 10574 10572 10570 10567 10563 10560 10555 10552 10549 10545 10542 10539 10536 10533 10529 10524 10519 10514 10508 10504 10500 10493 10487 10483 10476 10472 10467 10462 10455 10446 10451 10438 10434 10434 10427 10424 10421 10421 10415 10413
10553 10554 10555 10554 10552 10551 10549 10544 10540 10536 10533 10530 10526 10523 10521 10517 10513 10509 10504 10498 10492 10488 10482 10476 10471 10465 10459 10455 10448 10442 10438 10432 10425 10419 10418 10406 10404 10400 10398 10396 10395 10393 10389
10536 10536 10535 10534 10533 10533 10529 10524 10521 10518 10515 10511 10507 10504 10500 10497 10492 10487 10481 10475 10470 10464 10459 10452 10446 10440 10435 10429 10422 10416 10411 10404 10398 10389 10391 10387 10375 10371 10368 10363 10364 10362 10363
10518 10517 10516 10514 10513 10511 10508 10505 10501 10498 10495 10491 10488 10484 10479 10475 10469 10461 10456 10451 10445 10439 10431 10424 10419 10414 10407 10401 10395 10388 10382 10376 10370 10355 10353 10356 10347 10346 10340 10331 10330 10328 10329
10496 10497 10495 10494 10493 10490 10488 10484 10481 10479 10476 10472 10466 10463 10457 10451 10442 10437 10431 10426 10419 10412 10405 10398 10390 10383 10375 10367 10363 10356 10351 10344 10337 10332 10315 10321 10311 10310 10316 10303 10294 10291 10292